Regional Weather Roundup
Issued by NWS

Home | Current Version | Previous Version | Graphics & Text | Print | Product List | Glossary On
Versions: 1 2 3 4 5 6 7 8 9 10 11 12 13 14 15 16 17 18 19 20 21 22 23 24 25 26 27 28 29 30 31 32 33 34 35 36 37 38 39 40 41 42 43 44 45 46 47 48 49 50
000
ASUS43 KLMK 241910
RWRKY
KENTUCKY REGIONAL WEATHER ROUNDUP
NATIONAL WEATHER SERVICE LOUISVILLE KY
300 PM EDT FRI APR 24 2015

NOTE "FAIR" INDICATES FEW OR NO CLOUDS BELOW 12,000 FEET
WITH NO SIGNIFICANT WEATHER AND/OR OBSTRUCTIONS TO VISIBILITY.

KYZ001>023-026-027-061>063-070>075-242000-
WESTERN AND SOUTH CENTRAL KENTUCKY

CITY           SKY/WX    TMP DP  RH WIND       PRES   REMARKS
PADUCAH        CLOUDY    63  33  32 S9        29.98F
HENDERSON      CLOUDY    64  28  25 SE12      30.00F
OWENSBORO      CLOUDY    64  27  25 SE8       30.02F
HOPKINSVILLE   CLOUDY    64  31  28 SE10      30.01F
BOWLING GREEN  PTSUNNY   64  27  24 E6        30.04F
GLASGOW        CLOUDY    64  28  25 SE5       30.04F
$$

KYZ024-025-028>034-038-045-046-053-242000-
NORTH CENTRAL KENTUCKY

CITY           SKY/WX    TMP DP  RH WIND       PRES   REMARKS
LOUISVILLE/SDF CLOUDY    63  22  20 E6        30.04F
LOUISVILLE/LOU PTSUNNY   62  23  22 VRB5      30.05F
FORT KNOX      CLOUDY    63  17  17 VRB3      30.02F
$$

KYZ035>037-039>044-047>052-055>060-089>105-242000-
NORTHEAST KENTUCKY

CITY           SKY/WX    TMP DP  RH WIND       PRES   REMARKS
LEXINGTON      PTSUNNY   60  25  26 CALM      30.07F
COVINGTON      CLOUDY    59  24  26 CALM      30.06F
FRANKFORT      PTSUNNY   60  27  28 E8        30.06F
$$

KYZ054-064>069-076>088-106>120-242000-
SOUTHEAST KENTUCKY

CITY           SKY/WX    TMP DP  RH WIND       PRES   REMARKS
JACKSON        MOSUNNY   61  24  24 SW3       30.07F
LONDON         SUNNY     63  16  16 E6        30.06F
SOMERSET       PTSUNNY   63  27  25 W3        30.06F
MIDDLESBORO    SUNNY     64  22  20 CALM      30.05F
MONTICELLO     CLEAR     65  28  24 CALM      30.08F
$$




USA.gov is the U.S. government's official web portal to all federal, state and local government web resources and services.